#timestamp,LO_Frequency,Hit,StdDev 
1545674415.9,286046999.9,N
1545674435.7,286046999.8,N
1545674455.5,286047001.6,N
1545674475.4,286047001.9,N
1545674495.2,286047000.0,N
1545674515.1,286047002.7,N
1545674516.0,286047002.7,N
1545674535.8,286047000.3,N
1545674555.6,286047001.0,N
1545674575.5,286047001.0,N
1545674595.3,286046998.2,N
1545674615.1,286046999.1,N
1545674635.9,286046998.1,N
1545674655.7,286046998.9,N
1545674675.6,286046996.6,N
1545674695.4,286046998.6,N
1545674715.2,286047000.9,N
1545674735.1,286047000.4,N
1545674736.0,286047000.4,N
1545674755.8,286047000.2,N
1545674775.7,286047000.2,N
1545674795.5,286047002.8,N
1545674815.3,286047002.3,N
1545674835.2,286047002.8,N
1545674855.9,286047001.4,N
1545674875.7,286047005.6,Y
1545674895.6,286047003.7,P
1545674915.4,286047004.6,N
1545674935.3,286047003.1,N
1545674955.1,286047003.3,N
1545674956.0,286047003.3,N
1545674975.8,286047003.3,N
1545674995.7,286047003.0,N
1545675015.5,286047003.0,N
1545675035.3,286047003.0,N
1545675055.2,286047003.4,Y
1545675075.0,286047002.1,P
1545675075.9,286047002.1,P
1545675095.8,286047003.9,P
1545675115.6,286047002.0,N
1545675135.4,286047004.3,Y
1545675155.3,286046998.4,P
1545675175.1,286047000.5,N
1545675195.9,286046999.3,N
1545675215.7,286046998.4,N
1545675235.5,286046998.6,N
1545675255.4,286047001.1,N
1545675275.2,286046998.9,N
1545675295.0,286047000.2,N
1545675296.0,286047000.2,N
1545675315.8,286047002.2,N
1545675335.6,286047001.4,N
1545675355.5,286047003.0,N
1545675375.3,286047000.2,N
1545675395.1,286047002.2,N
1545675415.9,286047001.2,N
1545675435.7,286047000.6,N
1545675455.6,286047002.7,N
1545675475.4,286046999.8,N
1545675495.2,286047002.3,N
1545675515.1,286047001.5,N
1545675516.0,286047001.5,N
1545675535.8,286047002.6,N
1545675555.6,286047001.3,N
1545675575.5,286047002.5,N
1545675595.3,286047002.2,N
1545675615.2,286046999.7,N
1545675635.9,286047002.8,N
1545675655.7,286047000.1,N
1545675675.6,286047000.0,N
1545675695.4,286047000.9,N
1545675715.2,286047001.2,N
1545675735.1,286046999.5,N
1545675736.0,286046999.5,N
1545675755.8,286046999.3,N
1545675775.7,286046998.6,N
1545675795.5,286047001.4,N
1545675815.3,286047002.7,N
1545675835.2,286047002.5,N
1545675855.0,286047002.4,N
1545675855.9,286047002.4,N
1545675875.8,286047000.8,N
1545675895.6,286046998.1,N
1545675915.4,286047000.8,N
1545675935.3,286047000.6,N
1545675955.1,286046998.4,N
1545675975.8,286046998.7,N
1545675995.7,286046999.5,N
1545676015.5,286046999.0,N
1545676035.4,286046997.0,N
1545676055.2,286046997.7,N
1545676075.0,286046997.6,N
1545676075.9,286046997.6,N
1545676095.8,286046997.5,N
1545676115.6,286046997.3,N
1545676135.4,286046997.8,N
1545676155.3,286046997.3,N
1545676175.1,286046996.7,N
1545676195.9,286046997.5,N
1545676215.7,286046995.5,N
1545676235.5,286046996.3,N
1545676255.4,286046996.1,N
1545676275.2,286046996.3,N
1545676295.0,286046993.7,Y
1545676296.0,286046993.7,P
1545676315.8,286046996.1,N
1545676335.6,286046995.6,N
1545676355.5,286046994.2,Y
1545676375.3,286047000.8,P
1545676395.1,286046998.8,N
1545676415.9,286047000.9,N
1545676435.7,286046999.4,N
1545676455.6,286046999.5,N
1545676475.4,286046999.6,N
1545676495.2,286046995.4,Y
1545676515.1,286046997.1,P
1545676516.0,286046997.1,N
1545676535.8,286046997.6,N
1545676555.7,286046996.1,Y
1545676575.5,286046998.9,P
1545676595.3,286046998.7,N
1545676615.2,286046998.9,N
1545676635.9,286046996.6,Y
1545676655.7,286047000.7,P
1545676675.6,286046998.5,N
1545676695.4,286046998.5,N
1545676715.3,286047000.4,N
1545676735.1,286047001.2,N
1545676736.0,286047001.2,N
1545676755.8,286047001.0,N
1545676775.7,286047001.1,N
1545676795.5,286046998.8,N
1545676815.3,286047001.1,N
1545676835.2,286047001.0,N
1545676855.0,286046998.4,N
1545676855.9,286046998.4,N
1545676875.8,286046998.8,N
1545676895.6,286046998.6,N
1545676915.4,286046999.0,N
1545676935.3,286046998.5,N
1545676955.1,286046997.9,N
1545676975.9,286046995.4,Y
1545676995.7,286046993.5,P
1545677015.5,286046996.3,N
1545677035.4,286046995.7,N
1545677055.2,286046996.2,N
1545677075.0,286046995.2,N
1545677075.9,286046995.2,N
1545677095.8,286046997.2,N
1545677115.6,286046996.6,N
1545677135.5,286046997.0,N
1545677155.3,286046995.7,N
1545677175.1,286046995.5,Y
1545677195.9,286047000.9,P
1545677215.7,286047001.1,N
1545677235.6,286046997.3,N
1545677255.4,286046998.1,N
1545677275.2,286047001.1,N
1545677295.1,286046998.1,N
1545677296.0,286046998.1,N
1545677315.8,286047002.8,N
1545677335.6,286047002.6,N
1545677355.5,286047001.6,N
1545677375.3,286047004.3,N
1545677395.2,286047003.6,N
1545677415.9,286047006.0,N
1545677435.7,286047003.1,N
1545677455.6,286047006.0,N
1545677475.4,286047005.6,N
1545677495.2,286047003.9,N
1545677515.1,286047003.5,N
1545677516.0,286047003.5,N
1545677535.8,286047004.2,N
1545677555.7,286047004.3,N
1545677575.5,286047003.5,N
1545677595.3,286047003.0,N
1545677615.2,286047005.2,N
1545677635.0,286047002.9,N
1545677635.9,286047002.9,N
1545677655.7,286047006.0,N
1545677675.6,286047003.2,N
1545677695.4,286047003.1,N
1545677715.3,286047003.1,N
1545677735.1,286047005.5,N
1545677736.0,286047005.5,N
1545677755.8,286047003.1,N
1545677775.7,286047006.0,N
1545677795.5,286047005.4,N
1545677815.3,286047004.6,N
1545677835.2,286047004.7,N
1545677855.0,286047007.2,Y
1545677855.9,286047007.2,P
1545677875.8,286047004.3,N
1545677895.6,286047001.5,N
1545677915.4,286047003.4,N
1545677935.3,286047001.7,N
1545677955.1,286047000.0,N
1545677975.9,286047001.8,N
1545677995.7,286047004.2,N
